When you browse on this site, cookies collect data to enhance your experience and personalize the content and advertising you see.
Visit our Privacy Policy to learn more. By continuing to use the site, you agree to this use of cookies and data.

Previsão horária em Yulara

Hoje, 27 Setembro, Domingo

Tempo Temperatura Precipitação Vento Pressão Humidade
00:00 +17°C° 0 mm 6 m/s 718 mmHg 27%
01:00 +16°C° 0 mm 6 m/s 718 mmHg 28%
02:00 +16°C° 0 mm 5 m/s 718 mmHg 29%
03:00 +15°C° 0 mm 5 m/s 718 mmHg 30%
04:00 +14°C° 0 mm 5 m/s 718 mmHg 31%
05:00 +14°C° 0 mm 5 m/s 718 mmHg 32%
06:00 +13°C° 0 mm 5 m/s 718 mmHg 33%
07:00 +16°C° 0 mm 6 m/s 719 mmHg 29%
08:00 +19°C° 0 mm 6 m/s 719 mmHg 26%
09:00 +22°C° 0 mm 6 m/s 720 mmHg 21%
10:00 +26°C° 0 mm 6 m/s 720 mmHg 18%
11:00 +29°C° 0 mm 5 m/s 719 mmHg 15%
12:00 +33°C° 0 mm 5 m/s 719 mmHg 12%
13:00 +34°C° 0 mm 5 m/s 718 mmHg 12%
14:00 +35°C° 0 mm 5 m/s 718 mmHg 11%
15:00 +37°C° 0 mm 5 m/s 718 mmHg 10%
16:00 +35°C° 0 mm 4 m/s 717 mmHg 13%
17:00 +33°C° 0 mm 3 m/s 717 mmHg 15%
18:00 +30°C° 0 mm 2 m/s 717 mmHg 18%
19:00 +29°C° 0 mm 3 m/s 718 mmHg 19%
20:00 +28°C° 0 mm 3 m/s 718 mmHg 20%
21:00 +27°C° 0 mm 4 m/s 719 mmHg 22%
22:00 +26°C° 0 mm 4 m/s 719 mmHg 20%
23:00 +25°C° 0 mm 5 m/s 718 mmHg 19%

Amanhã, 28 Setembro, Segunda-feira

Tempo Temperatura Precipitação Vento Pressão Humidade
00:00 +23°C° 0 mm 6 m/s 718 mmHg 18%
01:00 +23°C° 0 mm 6 m/s 718 mmHg 19%
02:00 +22°C° 0 mm 6 m/s 718 mmHg 20%
03:00 +21°C° 0 mm 6 m/s 717 mmHg 21%
04:00 +21°C° 0 mm 6 m/s 717 mmHg 22%
05:00 +21°C° 0 mm 5 m/s 718 mmHg 24%
06:00 +21°C° 0 mm 4 m/s 718 mmHg 26%
07:00 +23°C° 0 mm 6 m/s 718 mmHg 25%
08:00 +27°C° 0 mm 7 m/s 719 mmHg 24%
09:00 +31°C° 0 mm 8 m/s 719 mmHg 23%
10:00 +33°C° 0 mm 8 m/s 719 mmHg 22%
11:00 +35°C° 0 mm 7 m/s 719 mmHg 20%
12:00 +36°C° 0 mm 7 m/s 718 mmHg 19%
13:00 +36°C° 0 mm 7 m/s 717 mmHg 21%
14:00 +35°C° 0 mm 6 m/s 716 mmHg 22%
15:00 +34°C° 0 mm 6 m/s 716 mmHg 24%
16:00 +32°C° 0 mm 6 m/s 716 mmHg 31%
17:00 +29°C° 0 mm 6 m/s 716 mmHg 39%
18:00 +27°C° 0 mm 6 m/s 716 mmHg 46%
19:00 +26°C° 0 mm 5 m/s 716 mmHg 47%
20:00 +26°C° 0 mm 5 m/s 717 mmHg 48%
21:00 +26°C° 0 mm 5 m/s 717 mmHg 50%
22:00 +25°C° 0 mm 5 m/s 717 mmHg 53%
23:00 +23°C° 0 mm 5 m/s 717 mmHg 56%

Depois de amanhã, 29 Setembro, Terça-feira

Tempo Temperatura Precipitação Vento Pressão Humidade
00:00 +23°C° 0 mm 5 m/s 717 mmHg 60%
01:00 +22°C° 0.7 mm 5 m/s 716 mmHg 66%
02:00 +21°C° 0.7 mm 5 m/s 715 mmHg 73%
03:00 +20°C° 0.7 mm 5 m/s 715 mmHg 79%
04:00 +20°C° 0.3 mm 6 m/s 715 mmHg 77%
05:00 +20°C° 0.3 mm 7 m/s 715 mmHg 74%
06:00 +20°C° 0.3 mm 8 m/s 715 mmHg 72%
07:00 +23°C° 0 mm 8 m/s 716 mmHg 61%
08:00 +26°C° 0 mm 8 m/s 716 mmHg 50%
09:00 +28°C° 0 mm 9 m/s 717 mmHg 38%
10:00 +32°C° 0 mm 9 m/s 716 mmHg 31%
11:00 +34°C° 0 mm 9 m/s 716 mmHg 23%
12:00 +38°C° 0 mm 9 m/s 715 mmHg 15%
13:00 +38°C° 0 mm 9 m/s 715 mmHg 14%
14:00 +38°C° 0 mm 10 m/s 714 mmHg 13%
15:00 +38°C° 0 mm 10 m/s 713 mmHg 12%
16:00 +34°C° 0 mm 11 m/s 714 mmHg 23%
17:00 +31°C° 0 mm 11 m/s 714 mmHg 35%
18:00 +28°C° 0 mm 11 m/s 714 mmHg 47%
19:00 +26°C° 0 mm 11 m/s 715 mmHg 52%
20:00 +24°C° 0 mm 10 m/s 716 mmHg 58%
21:00 +23°C° 0 mm 10 m/s 717 mmHg 63%
22:00 +22°C° 0 mm 8 m/s 717 mmHg 64%
23:00 +21°C° 0 mm 7 m/s 717 mmHg 65%

30 Setembro, Quarta-feira

Tempo Temperatura Precipitação Vento Pressão Humidade
00:00 +21°C° 0 mm 5 m/s 717 mmHg 67%
01:00 +20°C° 0 mm 5 m/s 717 mmHg 69%
02:00 +19°C° 0 mm 5 m/s 716 mmHg 70%
03:00 +19°C° 0 mm 4 m/s 716 mmHg 72%
04:00 +18°C° 0 mm 4 m/s 716 mmHg 75%
05:00 +18°C° 0 mm 4 m/s 717 mmHg 78%
06:00 +17°C° 0 mm 3 m/s 717 mmHg 81%
07:00 +19°C° 0 mm 4 m/s 718 mmHg 71%
08:00 +21°C° 0 mm 6 m/s 718 mmHg 62%
09:00 +23°C° 0 mm 7 m/s 719 mmHg 53%
10:00 +26°C° 0 mm 7 m/s 718 mmHg 47%
11:00 +27°C° 0 mm 7 m/s 718 mmHg 41%
12:00 +29°C° 0 mm 6 m/s 718 mmHg 35%
13:00 +30°C° 0 mm 6 m/s 717 mmHg 32%
14:00 +32°C° 0 mm 5 m/s 717 mmHg 29%
15:00 +32°C° 0 mm 4 m/s 716 mmHg 26%
16:00 +32°C° 0 mm 4 m/s 716 mmHg 27%
17:00 +30°C° 0 mm 4 m/s 716 mmHg 27%
18:00 +29°C° 0 mm 4 m/s 716 mmHg 28%
19:00 +28°C° 0 mm 5 m/s 717 mmHg 31%
20:00 +27°C° 0 mm 5 m/s 717 mmHg 33%
21:00 +26°C° 0 mm 6 m/s 718 mmHg 35%
22:00 +25°C° 0 mm 5 m/s 718 mmHg 37%
23:00 +23°C° 0 mm 5 m/s 718 mmHg 38%

1 Outubro, Quinta-feira

Tempo Temperatura Precipitação Vento Pressão Humidade
00:00 +22°C° 0 mm 5 m/s 718 mmHg 40%
01:00 +21°C° 0 mm 5 m/s 718 mmHg 39%
02:00 +21°C° 0 mm 5 m/s 718 mmHg 38%
03:00 +20°C° 0 mm 5 m/s 717 mmHg 37%
04:00 +20°C° 0 mm 5 m/s 718 mmHg 38%
05:00 +19°C° 0 mm 4 m/s 718 mmHg 39%
06:00 +18°C° 0 mm 4 m/s 718 mmHg 40%
07:00 +21°C° 0 mm 5 m/s 719 mmHg 36%
08:00 +23°C° 0 mm 6 m/s 719 mmHg 32%
09:00 +27°C° 0 mm 7 m/s 720 mmHg 27%
10:00 +29°C° 0 mm 7 m/s 719 mmHg 25%
11:00 +32°C° 0 mm 7 m/s 719 mmHg 23%
12:00 +34°C° 0 mm 7 m/s 719 mmHg 20%
13:00 +34°C° 0 mm 6 m/s 718 mmHg 19%
14:00 +35°C° 0 mm 6 m/s 717 mmHg 18%
15:00 +36°C° 0 mm 5 m/s 717 mmHg 17%
16:00 +35°C° 0 mm 5 m/s 717 mmHg 18%
17:00 +34°C° 0 mm 4 m/s 716 mmHg 19%
18:00 +34°C° 0 mm 4 m/s 716 mmHg 20%
19:00 +32°C° 0 mm 5 m/s 717 mmHg 22%
20:00 +30°C° 0 mm 6 m/s 717 mmHg 23%
21:00 +29°C° 0 mm 7 m/s 718 mmHg 25%
22:00 +28°C° 0 mm 7 m/s 718 mmHg 25%
23:00 +27°C° 0 mm 7 m/s 717 mmHg 24%

2 Outubro, Sexta-feira

Tempo Temperatura Precipitação Vento Pressão Humidade
00:00 +26°C° 0 mm 7 m/s 717 mmHg 24%
01:00 +24°C° 0 mm 6 m/s 717 mmHg 24%
02:00 +23°C° 0 mm 5 m/s 717 mmHg 24%
03:00 +23°C° 0 mm 5 m/s 717 mmHg 24%
04:00 +22°C° 0 mm 4 m/s 717 mmHg 24%
05:00 +22°C° 0 mm 4 m/s 718 mmHg 25%
06:00 +22°C° 0 mm 3 m/s 718 mmHg 25%
07:00 +25°C° 0.2 mm 4 m/s 718 mmHg 25%
08:00 +26°C° 0.2 mm 4 m/s 719 mmHg 26%
09:00 +27°C° 0.2 mm 5 m/s 719 mmHg 27%
10:00 +29°C° 0.3 mm 5 m/s 719 mmHg 28%
11:00 +30°C° 0.3 mm 5 m/s 718 mmHg 29%
12:00 +32°C° 0.3 mm 5 m/s 718 mmHg 30%
13:00 +32°C° 0.1 mm 4 m/s 718 mmHg 29%
14:00 +31°C° 0.1 mm 3 m/s 717 mmHg 29%
15:00 +31°C° 0.1 mm 2 m/s 717 mmHg 29%
16:00 +32°C° 0.2 mm 4 m/s 717 mmHg 31%
17:00 +30°C° 0.2 mm 5 m/s 717 mmHg 34%
18:00 +29°C° 0.2 mm 6 m/s 717 mmHg 36%
19:00 +28°C° 0.3 mm 5 m/s 717 mmHg 39%
20:00 +27°C° 0.3 mm 5 m/s 718 mmHg 42%
21:00 +26°C° 0.3 mm 4 m/s 718 mmHg 46%
22:00 +26°C° 1 mm 4 m/s 718 mmHg 47%
23:00 +26°C° 1 mm 4 m/s 718 mmHg 48%
Mostrar mais